Location: Newark
(42.8481°N, 0.4872°E)
Time: 12:20:25
(UTC+00:00)

Altair - Visible Passes

Search period start: 31 October 2020 00:00
Search period end: 10 November 2020 00:00
Orbit: 1502 x 1682 km, 47.2° (Epoch: 30 October)

Date Brightness Start Highest point End Pass type
(mag) Time Alt. Az. Time Alt. Az. Time Alt. Az.
31 Oct 8.5 02:43:14 30° SE 02:44:13 30° SE 02:51:59 10° ENE visible
31 Oct 7.5 04:41:18 22° SW 04:47:56 80° SSE 04:57:30 10° ENE visible
01 Nov 8.7 02:19:55 27° ESE 02:19:55 27° ESE 02:26:37 10° ENE visible
01 Nov 7.5 04:17:59 33° SW 04:22:47 77° SSE 04:32:17 10° ENE visible
02 Nov 9.0 01:56:32 23° ESE 01:56:32 23° ESE 02:01:14 10° E visible
02 Nov 7.5 03:54:35 47° SW 03:57:38 73° SSE 04:07:04 10° ENE visible
02 Nov 7.6 05:53:17 10° W 06:02:35 70° N 06:12:16 10° ENE visible
03 Nov 9.3 01:33:04 17° E 01:33:04 17° E 01:35:49 10° E visible
03 Nov 7.4 03:31:06 61° S 03:32:30 69° SSE 03:41:51 10° ENE visible
03 Nov 7.6 05:29:09 14° W 05:37:22 71° N 05:47:00 10° ENE visible
04 Nov 9.6 01:09:32 12° E 01:09:32 12° E 01:10:21 10° E visible
04 Nov 7.5 03:07:35 64° SE 03:07:35 64° SE 03:16:38 10° ENE visible
04 Nov 7.5 05:05:37 22° W 05:12:08 73° NNW 05:21:45 10° ENE visible
05 Nov 7.9 02:44:00 53° ESE 02:44:00 53° ESE 02:51:25 10° ENE visible
05 Nov 7.4 04:42:02 33° W 04:46:55 74° NNW 04:56:30 10° ENE visible
06 Nov 8.3 02:20:22 40° E 02:20:22 40° E 02:26:12 10° ENE visible
06 Nov 7.4 04:18:24 46° W 04:21:43 76° NNW 04:31:15 10° ENE visible
07 Nov 8.8 01:56:43 29° E 01:56:43 29° E 02:00:58 10° ENE visible
07 Nov 7.3 03:54:45 62° W 03:56:31 78° NNW 04:06:02 10° ENE visible
07 Nov 7.7 05:52:46 11° WNW 06:01:57 70° N 06:11:36 10° E visible
08 Nov 9.2 01:33:02 21° ENE 01:33:02 21° ENE 01:35:44 10° ENE visible
08 Nov 7.2 03:31:03 80° NW 03:31:18 81° NNW 03:40:48 10° ENE visible
08 Nov 7.6 05:29:05 17° WNW 05:36:43 69° N 05:46:19 10° E visible
09 Nov 9.5 01:09:19 14° ENE 01:09:19 14° ENE 01:10:30 10° ENE visible
09 Nov 7.5 03:07:20 71° NE 03:07:20 71° NE 03:15:35 10° ENE visible
09 Nov 7.6 05:05:22 24° WNW 05:11:29 68° N 05:21:03 10° E visible
